User: anonymous   Login
Location: Nebula Knoll Observatory
(43.6666°N, 71.0000°W)
Time: 18:02:38
(UTC-05:00)
Language:

Cosmos 1782 - Orbit

View from above orbital plane
View from above orbital plane
View from above satellite
View from above satellite

Ground track
Ground track

The orbit data is extracted from the following two-line orbital elements,

1 16986U 86074A   17324.52084711 +.00000136 +00000-0 +71164-5 0  9994
2 16986 082.5060 329.1333 0012012 161.3728 198.7942 15.06730145673212
Epoch (UTC): 20 November 2017 12:30:01
Eccentricity: 0.0012012
inclination: 82.5060°
perigee height: 538 km
apogee height: 554 km
right ascension of ascending node: 329.1333°
argument of perigee: 161.3728°
revolutions per day: 15.06730145
mean anomaly at epoch: 198.7942°
orbit number at epoch: 67321

The dashed part of the orbit path shows where the satellite is in the earth's shadow,  

DLR